Location: La Sioule Rivi�re
(46.3664°N, 3.3197°E)
Time: 13:06:59
(UTC+00:00)

Cosmos 1825 - Pass Details

Date: 29 October 2020
Orbit: 502 x 508 km, 82.5° (Epoch: 23 November)

Event Time Altitude Azimuth Distance (km) Brightness Sun altitude
Rises 18:45:10 0° 347° (NNW) 2,623 6.0 -22.8°
Reaches altitude 10° 18:47:20 10° 343° (NNW) 1,732 5.1 -23.2°
Maximum altitude 18:51:03 57° 265° (W) 600 2.7 -23.8°
Enters shadow 18:52:10 39° 208° (SSW) 769 3.1 -24.0°
